Warning: Javascript must be enabled to use all the features on this page!


Page Loading - Please Wait...

* We've detected you're using a mobile device. Find our Next Generation Station Page here.
Click to hideNews Bulletins

Peak Streamflow for the Nation

USGS 14015000 MILL CREEK AT WALLA WALLA, WA

Walla Walla County, Washington
Hydrologic Unit Code 17070102
Latitude  46°04'35", Longitude 118°16'21" NAD27
Drainage area 95.7  square miles
Gage datum 1,120.00 feet above NGVD29
Output formats
Table
Graph
Tab-separated file
peakfq (watstore) format
Reselect output format
Water
Year
Date Gage
Height
(feet)
Stream-
flow
(cfs)
1942 1942-06-27 2.83 5736
1943 1943-04-11 2.792 7146
1944 1944-03-09 2.83 7666
1945 1945-02-08 2.77 8646
1946 1945-12-28 4.00 2,7606
1947 1946-12-12 3.13 1,6006
1948 1948-01-07 3.17 1,4806
1950 1950-01-22 5.04 1,7306
1951 1951-02-11 4.26 1,8106
1952 1951-10-23 3.96 7646
1953 1953-01-18 4.73 1,6306
1954 1954-01-29 3.72 5946
1955 1955-04-10 3.49 4566
1956 1955-12-22 4.33 9676
1957 1956-12-11 4.26 9086
1958 1958-04-20 4.12 1,2206
1959 1959-01-27 3.76 9086
1960 1960-02-08 3.10 4446
1961 1961-02-22 3.88 1,0906
1962 1962-03-27 3.69 9226
1963 1963-02-04 3.14 5206
1964 1964-04-01 3.40 6836
1965 1964-12-23 5.14 2,4006
1966 1966-03-30 3.11 4966
1967 1967-01-28 3.56 8186
1968 1968-02-20 3.95 1,1606
1969 1969-01-06 5.07 2,3306
1970 1970-01-24 4.15 1,3506
1971 1971-01-19 4.18 1,3406
1972 1972-01-21 4.02 1,1606
1973 1972-12-21 3.26 5926
1974 1974-01-16 4.23 1,4306
1975 1975-01-25 4.44 1,6006
1976 1975-12-07 4.55 1,5006
1977 1977-04-08 2.67 2146
1978 1977-12-02 4.35 1,1906
1979 1979-02-13 4.18 1,0806
1980 1980-01-14 3.59 6826
1981 1980-12-26 4.81 1,6106
1982 1982-02-14 4.89 1,7106
1983 1983-01-06 4.51 1,3206
1984 1984-01-25 3.94 9096
1985 1985-04-03 3.40 5646
1986 1986-02-23 4.71 1,6206
1987 1986-11-28 3.13 4436
1988 1988-01-15 3.43 6176
1989 1989-01-10 4.52 1,4406
1990 1990-01-10 3.07 4116
1991 1991-01-15 3.99 1,0106
1992 1991-12-07 4.37 1,0306
1993 1993-05-04 4.05 1,0506
1994 1994-03-02 3.36 5746
1995 1995-02-01 4.15 1,1206
1996 1996-02-09 6.89 4,1906
1997 1997-02-01 4.85 1,6106
1998 1997-12-17 3.34 5116
1999 1999-01-15 3.92 8896
2000 2000-05-31 3.70 7206
2001 2001-02-05 3.29 4676
2002 2002-02-24 4.46 1,3206
2003 2003-01-31 4.73 1,5706
2004 2004-01-29 4.76 1,6006
2005 2005-03-30 3.52 6156
2006 2006-04-06 4.00 9306
2007 2006-11-07 3.97 9076
2008 2008-04-15 3.46 5666
2009 2009-01-08 5.20 2,0406
2010 2010-06-03 3.76 7626
2011 2011-01-16 4.66 1,5006
2012 2011-12-30 3.98 9236
2013 2013-04-20 4.40 1,2706
2014 2014-03-10 4.16 1,0706
2015 2015-02-10 4.39 1,2606
2016 2016-03-23 3.50 5906
2017 2017-03-16 4.62 1,4706
2018 2017-12-29 4.72 1,5606
2019 2019-04-09 4.77 1,6306
2020 2020-02-07 7.07 4,7006
2021 2020-12-20 3.82 8856
?
  Peak Gage-Height Qualification Codes.
?
  Peak Streamflow Qualification Codes.